Weather Roundup
Issued by NWS Chicago, IL

Home | Current Version | Previous Version | Text Only | Print | Product List | Glossary Off
Versions: 1 2 3 4 5 6 7 8 9 10 11 12 13 14 15 16 17 18 19 20 21 22 23 24 25 26 27 28 29 30 31 32 33 34 35 36 37 38 39 40 41 42 43 44 45 46 47 48 49 50

000
NZUS59 KLOT 041308
HRRLOT

CHICAGO AREA WEATHER ROUNDUP
NATIONAL WEATHER SERVICE CHICAGO/ROMEOVILLE IL
800 AM CDT SAT JUL 04 2015

NOTE: "FAIR" INDICATES FEW OR NO CLOUDS BELOW 12,000 FEET WITH NO
SIGNIFICANT WEATHER AND/OR OBSTRUCTIONS TO VISIBILITY.

* THESE STATIONS ARE NOT UNDER NWS QUALITY CONTROL. THEY ALSO MAY NOT
  REPORT WEATHER SUCH AS PRECIPITATION OR FOG.

ILZ005-006-012>014-019>023-041400-
NORTHEAST ILLINOIS

CITY           SKY/WX    TMP DP  RH WIND       PRES   REMARKS
OHARE          SUNNY     67  56  67 NW5       29.98S
MIDWAY         SUNNY     68  58  70 NW5       29.99R
AURORA         SUNNY     65  58  78 NW5       30.00S HAZE
LANSING*       SUNNY     64  57  79 CALM      30.00R HAZE
JOLIET*        SUNNY     66  61  84 CALM      29.99S HAZE
WAUKEGAN       SUNNY     66  58  75 CALM      29.98S
DUPAGE AIRPORT SUNNY     66  59  78 CALM      29.99R
WHEELING       SUNNY     67  57  70 CALM      30.00R
KANKAKEE*      SUNNY     65  61  89 CALM      30.01R
MORRIS*        SUNNY     64  60  84 CALM      29.98R
LEWIS AIRPORT* SUNNY     65  58  78 CALM      30.00R HAZE
NORTHERLY IS     N/A     69  55  60 W7          N/A
$$

WIZ051-052-058>065-066-070>072-041400-
SOUTHEAST WISCONSIN

CITY           SKY/WX    TMP DP  RH WIND       PRES   REMARKS
MILWAUKEE      MOSUNNY   68  56  65 W8        29.97S
KENOSHA*       SUNNY     66  58  75 W5        29.98S
RACINE*        SUNNY     67  56  67 W6        29.99S
BURLINGTON     SUNNY     61  58  92 CALM      29.98S
WAUKESHA       SUNNY     63  57  82 CALM      29.99S
WEST BEND      SUNNY     64  57  77 CALM      29.98R
$$

INZ001>003-010>013-019-020-041400-
NORTHWEST INDIANA

CITY           SKY/WX    TMP DP  RH WIND       PRES   REMARKS
GARY*          SUNNY     66  59  77 CALM      30.00R HAZE
MICHIGAN CITY* NOT AVBL
RENSSELAER*    NOT AVBL
VALPARAISO     SUNNY     63  59  87 CALM      30.01R
$$

LMZ740>746-041400-
SOUTHERN LAKE MICHIGAN

STATION/POSITION TIME  SKY/WX   TEMP WIND        PRES    VSBY
                                AIR  DIR/SP/G
                 (UTC)          (F)  (DEG/KT/KT) (MB)    (MI)
HARRISON CRIB    1200            65  280/ 10/ 10   N/A
BURNHAM HARBOR   1300            70  290/  4/ 10   N/A
CALUMET HARBOR   1200            64  250/  2/  4   N/A
BURNS HARBOR     1200            62  190/  3/  4 1015.9R
MICHIGAN CITY    1215            61  150/  3/  3   N/A
$$

ABBREVIATIONS USED IN REMARKS
   TC - TEMPERATURE IN CELSIUS
  WCI - WIND CHILL INDEX
   HX - HEAT INDEX
  VSB - VISIBILITY
$$



USA.gov is the U.S. government's official web portal to all federal, state and local government web resources and services.